Location: Unspecified
(0.0000°N, 0.0000°E)
Time: 19:00:35
(UTC+00:00)

Transit 2A Rocket - All Passes

Search period start: 01 July 2016 00:00
Search period end: 11 July 2016 00:00
Orbit: 584 x 920 km, 66.7° (Epoch: 30 June)

Date Brightness Start Highest point End Pass type
(mag) Time Alt. Az. Time Alt. Az. Time Alt. Az.
01 Jul - 09:13:25 10° S 09:18:04 55° ESE 09:23:10 10° NNE daylight
01 Jul - 20:05:48 10° NE 20:06:55 11° ENE 20:08:02 10° E visible
01 Jul - 21:44:08 10° NW 21:49:30 50° WSW 21:54:25 10° S visible
02 Jul - 08:31:59 10° SSE 08:35:54 25° ESE 08:40:06 10° NE daylight
02 Jul - 10:14:56 10° WSW 10:18:16 18° WNW 10:21:47 10° NNW daylight
02 Jul - 21:01:40 10° NNW 21:07:17 78° ENE 21:12:23 10° SSE visible
03 Jul - 07:52:16 10° SE 07:53:44 11° ESE 07:55:15 10° E daylight
03 Jul - 09:31:26 10° SW 09:35:54 38° WNW 09:40:48 10° N daylight
03 Jul - 20:19:51 10° N 20:24:59 37° ENE 20:29:42 10° SE visible
03 Jul - 22:04:29 10° WNW 22:07:12 14° WSW 22:09:49 10° SW visible
04 Jul - 08:48:50 10° SSW 08:53:38 85° WNW 08:58:55 10° NNE daylight
04 Jul - 19:38:55 10° NNE 19:42:37 18° ENE 19:46:07 10° ESE visible
04 Jul - 21:20:19 10° NW 21:25:02 29° WSW 21:29:25 10° SSW visible
05 Jul - 08:06:53 10° S 08:11:25 43° ESE 08:16:23 10° NE daylight
05 Jul - 09:52:56 10° WNW 09:53:57 11° WNW 09:54:59 10° NW daylight
05 Jul - 20:37:22 10° NNW 20:42:51 63° WSW 20:47:51 10° S visible
06 Jul - 07:25:45 10° SSE 07:29:15 20° ESE 07:32:59 10° ENE daylight
06 Jul - 09:07:41 10° WSW 09:11:33 23° WNW 09:15:43 10° NNW daylight
06 Jul - 19:55:07 10° N 20:00:37 61° ENE 20:05:37 10° SSE visible
07 Jul - 08:24:31 10° SW 08:29:13 49° WNW 08:34:22 10° N daylight
07 Jul - 19:13:32 10° N 19:18:17 29° ENE 19:22:42 10° SE visible
07 Jul - 20:57:02 10° WNW 21:00:33 18° WSW 21:03:54 10° SSW visible
08 Jul - 07:42:08 10° SSW 07:46:57 76° ESE 07:52:16 10° NNE daylight
08 Jul - 18:33:07 10° NE 18:35:54 14° ENE 18:38:35 10° E visible
08 Jul - 20:13:23 10° NW 20:18:24 37° WSW 20:23:01 10° S visible
09 Jul - 07:00:24 10° S 07:04:46 34° ESE 07:09:30 10° NE daylight
09 Jul - 08:44:39 10° W 08:47:14 14° WNW 08:49:56 10° NW daylight
09 Jul - 19:30:41 10° NNW 19:36:12 80° WSW 19:41:13 10° SSE visible
10 Jul - 06:19:40 10° SE 06:22:37 16° ESE 06:25:41 10° ENE daylight
10 Jul - 08:00:34 10° SW 08:04:51 29° WNW 08:09:29 10° N daylight
10 Jul - 18:48:37 10° N 18:53:56 48° ENE 18:58:46 10° SE visible
